TimeEDT,TemperatureF,Dew PointF,Humidity,Sea Level PressureIn,VisibilityMPH,Wind Direction,Wind SpeedMPH,Gust SpeedMPH,PrecipitationIn,Events,Conditions,WindDirDegrees,DateUTC
12:58 AM,71.2,70.9,99,30.10,10.0,SE,2.3,-,N/A,,Scattered Clouds,130,2013-08-18 04:58:00
1:09 AM,71.6,71.6,100,30.10,10.0,SE,2.3,-,N/A,,Scattered Clouds,130,2013-08-18 05:09:00
1:58 AM,70.9,70.5,99,30.08,10.0,NE,1.2,-,N/A,,Scattered Clouds,40,2013-08-18 05:58:00
2:55 AM,71.6,69.8,94,30.07,10.0,ESE,3.5,-,N/A,,Partly Cloudy,120,2013-08-18 06:55:00
2:58 AM,71.6,69.8,94,30.06,10.0,ESE,4.6,-,N/A,,Partly Cloudy,110,2013-08-18 06:58:00
3:52 AM,71.6,71.6,100,30.06,10.0,East,5.8,-,N/A,,Mostly Cloudy,80,2013-08-18 07:52:00
3:56 AM,71.6,71.6,100,30.06,10.0,East,5.8,-,N/A,,Overcast,80,2013-08-18 07:56:00
3:58 AM,71.2,70.9,99,30.06,10.0,East,5.8,-,N/A,,Overcast,80,2013-08-18 07:58:00
4:08 AM,71.6,71.6,100,30.06,10.0,ESE,4.6,-,N/A,,Overcast,110,2013-08-18 08:08:00
4:14 AM,71.6,71.6,100,30.06,10.0,ESE,4.6,-,N/A,Rain,Light Rain,120,2013-08-18 08:14:00
4:24 AM,71.6,71.6,100,30.06,10.0,ESE,4.6,-,N/A,,Overcast,110,2013-08-18 08:24:00
4:42 AM,71.6,71.6,100,30.07,10.0,ESE,5.8,-,N/A,,Overcast,120,2013-08-18 08:42:00
4:58 AM,71.4,71.2,99,30.08,10.0,ESE,5.8,-,0.00,,Overcast,110,2013-08-18 08:58:00
5:38 AM,71.6,71.6,100,30.09,10.0,East,1.2,-,N/A,,Overcast,100,2013-08-18 09:38:00
5:58 AM,71.6,71.2,99,30.09,10.0,ENE,4.6,-,N/A,,Overcast,60,2013-08-18 09:58:00
6:36 AM,71.6,71.6,100,30.09,10.0,ENE,4.6,-,N/A,,Mostly Cloudy,70,2013-08-18 10:36:00
6:38 AM,71.6,71.6,100,30.09,10.0,ENE,4.6,-,N/A,,Mostly Cloudy,60,2013-08-18 10:38:00
6:58 AM,71.2,70.9,99,30.10,10.0,NE,2.3,-,N/A,,Overcast,50,2013-08-18 10:58:00
7:58 AM,71.8,71.4,99,30.12,10.0,ENE,4.6,-,N/A,,Overcast,60,2013-08-18 11:58:00
8:06 AM,71.6,71.6,100,30.12,10.0,NE,4.6,-,N/A,,Overcast,50,2013-08-18 12:06:00
8:12 AM,71.6,71.6,100,30.13,10.0,ENE,3.5,-,N/A,,Overcast,60,2013-08-18 12:12:00
8:58 AM,72.9,72.5,99,30.14,10.0,ENE,4.6,-,N/A,,Overcast,60,2013-08-18 12:58:00
9:18 AM,75.2,75.2,100,30.13,10.0,East,6.9,-,N/A,,Scattered Clouds,90,2013-08-18 13:18:00
9:56 AM,78.8,73.4,83,30.13,10.0,Variable,2.3,-,N/A,,Mostly Cloudy,0,2013-08-18 13:56:00
9:58 AM,77.9,73.0,85,30.13,10.0,NE,4.6,-,N/A,,Mostly Cloudy,50,2013-08-18 13:58:00
10:10 AM,78.8,73.4,83,30.13,10.0,East,3.5,-,N/A,,Mostly Cloudy,100,2013-08-18 14:10:00
10:38 AM,80.6,73.4,79,30.13,10.0,East,3.5,-,N/A,,Scattered Clouds,100,2013-08-18 14:38:00
10:40 AM,80.6,73.4,79,30.13,10.0,ESE,4.6,-,N/A,,Mostly Cloudy,110,2013-08-18 14:40:00
10:42 AM,80.6,73.4,79,30.13,10.0,East,5.8,-,N/A,,Scattered Clouds,90,2013-08-18 14:42:00
10:58 AM,81.9,73.2,75,30.13,10.0,ESE,9.2,-,N/A,,Scattered Clouds,120,2013-08-18 14:58:00
11:58 AM,85.6,73.2,66,30.13,10.0,SSE,8.1,-,N/A,,Scattered Clouds,150,2013-08-18 15:58:00
12:58 PM,86.9,73.0,63,30.11,10.0,SE,5.8,-,N/A,,Scattered Clouds,130,2013-08-18 16:58:00
1:58 PM,89.2,72.9,58,30.10,10.0,SE,10.4,-,N/A,,Mostly Cloudy,140,2013-08-18 17:58:00
2:58 PM,90.1,71.4,54,30.08,10.0,ESE,8.1,-,N/A,,Mostly Cloudy,120,2013-08-18 18:58:00
3:58 PM,90.0,72.5,56,30.04,10.0,SSW,5.8,-,N/A,,Mostly Cloudy,210,2013-08-18 19:58:00
4:39 PM,89.6,71.6,55,30.04,10.0,ESE,20.7,29.9,N/A,,Mostly Cloudy,120,2013-08-18 20:39:00
4:45 PM,86.0,71.6,62,30.05,10.0,SSE,18.4,29.9,N/A,Rain,Light Rain,150,2013-08-18 20:45:00
4:50 PM,82.4,73.4,74,30.06,9.0,SSE,16.1,24.2,N/A,Rain,Light Rain,150,2013-08-18 20:50:00
4:56 PM,78.8,73.4,83,30.06,4.0,SE,15.0,-,N/A,Rain-Thunderstorm,Thunderstorms and Rain,140,2013-08-18 20:56:00
4:58 PM,78.8,71.6,78,30.06,4.0,SSE,12.7,-,0.01,Rain-Thunderstorm,Thunderstorms and Rain,150,2013-08-18 20:58:00
5:00 PM,78.8,71.6,78,30.07,3.0,SSE,10.4,-,N/A,Rain-Thunderstorm,Thunderstorms and Rain,160,2013-08-18 21:00:00
5:02 PM,77.0,73.4,89,30.07,3.0,South,10.4,-,N/A,Rain-Thunderstorm,Thunderstorms and Rain,170,2013-08-18 21:02:00
5:20 PM,77.0,73.4,89,30.07,8.0,Variable,1.2,-,N/A,Rain-Thunderstorm,Light Thunderstorms and Rain,0,2013-08-18 21:20:00
5:24 PM,77.0,73.4,89,30.07,9.0,Variable,1.2,-,N/A,Rain-Thunderstorm,Light Thunderstorms and Rain,0,2013-08-18 21:24:00
5:30 PM,77.0,73.4,89,30.08,10.0,East,3.5,-,N/A,Thunderstorm,Thunderstorm,100,2013-08-18 21:30:00
5:37 PM,77.0,73.4,89,30.07,10.0,NNE,3.5,-,N/A,Thunderstorm,Scattered Clouds,30,2013-08-18 21:37:00
5:44 PM,77.0,73.4,89,30.08,10.0,North,4.6,-,N/A,Thunderstorm,Partly Cloudy,350,2013-08-18 21:44:00
5:52 PM,78.8,73.4,83,30.08,10.0,NNW,5.8,-,N/A,Rain,Light Rain,330,2013-08-18 21:52:00
5:58 PM,77.9,74.5,89,30.09,10.0,North,5.8,-,0.06,Rain,Light Rain,360,2013-08-18 21:58:00
6:03 PM,77.0,73.4,89,30.07,10.0,North,9.2,-,N/A,,Scattered Clouds,360,2013-08-18 22:03:00
6:28 PM,77.0,73.4,89,30.09,10.0,Calm,Calm,-,N/A,Rain,Light Rain,0,2013-08-18 22:28:00
6:58 PM,76.8,74.5,92,30.09,10.0,NNW,2.3,-,0.00,Rain,Light Rain,340,2013-08-18 22:58:00
7:17 PM,77.0,75.2,94,30.09,10.0,Calm,Calm,-,N/A,,Clear,0,2013-08-18 23:17:00
7:27 PM,77.0,75.2,94,30.09,10.0,NW,2.3,-,N/A,Rain,Light Rain,310,2013-08-18 23:27:00
7:34 PM,77.0,75.2,94,30.09,10.0,NNW,2.3,-,N/A,Rain,Light Rain,330,2013-08-18 23:34:00
7:44 PM,77.0,75.2,94,30.10,7.0,WNW,2.3,-,N/A,Rain,Light Rain,300,2013-08-18 23:44:00
7:46 PM,77.0,75.2,94,30.10,6.0,NW,2.3,-,N/A,Rain,Light Rain,310,2013-08-18 23:46:00
7:48 PM,77.0,75.2,94,30.10,6.0,NNW,1.2,-,N/A,Rain,Light Rain,330,2013-08-18 23:48:00
7:58 PM,76.5,74.7,94,30.10,4.0,West,2.3,-,0.04,Rain-Thunderstorm,Light Rain,280,2013-08-18 23:58:00
8:04 PM,77.0,75.2,94,30.09,4.0,West,2.3,-,N/A,Rain-Thunderstorm,Light Rain,270,2013-08-19 00:04:00
8:10 PM,77.0,75.2,94,30.09,4.0,West,4.6,-,N/A,Rain-Thunderstorm,Light Rain,260,2013-08-19 00:10:00
8:14 PM,77.0,75.2,94,30.09,6.0,WSW,5.8,-,N/A,Rain-Thunderstorm,Light Rain,240,2013-08-19 00:14:00
8:15 PM,77.0,75.2,94,30.09,7.0,SW,6.9,-,N/A,Rain-Thunderstorm,Light Rain,230,2013-08-19 00:15:00
8:17 PM,77.0,75.2,94,30.09,7.0,SW,5.8,-,N/A,Rain-Thunderstorm,Light Rain,230,2013-08-19 00:17:00
8:21 PM,77.0,75.2,94,30.09,8.0,SW,5.8,-,N/A,Rain-Thunderstorm,Light Thunderstorms and Rain,230,2013-08-19 00:21:00
8:31 PM,77.0,75.2,94,30.09,8.0,SW,3.5,-,N/A,Rain-Thunderstorm,Light Thunderstorms and Rain,220,2013-08-19 00:31:00
8:36 PM,77.0,75.2,94,30.10,9.0,South,4.6,-,N/A,Rain,Light Rain,180,2013-08-19 00:36:00
8:38 PM,75.2,75.2,100,30.10,10.0,South,5.8,-,N/A,Rain,Light Rain,180,2013-08-19 00:38:00
8:56 PM,75.2,75.2,100,30.09,10.0,East,4.6,-,N/A,Rain,Light Rain,80,2013-08-19 00:56:00
8:58 PM,75.2,75.2,100,30.09,10.0,ENE,3.5,-,0.09,Rain,Light Rain,70,2013-08-19 00:58:00
9:04 PM,75.2,75.2,100,30.09,9.0,ENE,3.5,-,N/A,Rain,Light Rain,70,2013-08-19 01:04:00
9:08 PM,75.2,75.2,100,30.10,9.0,ENE,3.5,-,N/A,Rain-Thunderstorm,Light Rain,60,2013-08-19 01:08:00
9:10 PM,75.2,75.2,100,30.10,10.0,NE,3.5,-,N/A,Rain-Thunderstorm,Light Rain,50,2013-08-19 01:10:00
9:26 PM,75.2,73.4,94,30.11,10.0,NNE,4.6,-,N/A,,Partly Cloudy,30,2013-08-19 01:26:00
9:58 PM,75.0,74.1,97,30.12,10.0,ESE,2.3,-,0.01,,Partly Cloudy,120,2013-08-19 01:58:00
10:58 PM,74.3,73.4,97,30.11,10.0,NE,4.6,-,N/A,,Scattered Clouds,40,2013-08-19 02:58:00
11:58 PM,73.6,72.7,97,30.10,10.0,ENE,5.8,-,N/A,,Partly Cloudy,60,2013-08-19 03:58:00